Location: Alma
(34.4195°N, 97.6123°W)
Time: 06:53:17
(UTC+00:00)

Hubble Space Telescope - Pass Details

Date: 27 May 2024
Orbit: 511 x 514 km, 28.5° (Epoch: 13 June)

Event Time Altitude Azimuth Distance (km) Brightness Sun altitude
Rises 02:00:34 0° 224° (SW) 2,606 4.5 -5.6°
Reaches altitude 10° 02:03:21 10° 205° (SSW) 1,721 3.3 -6.1°
Maximum altitude 02:06:03 18° 162° (SSE) 1,315 2.3 -6.5°
Drops below altitude 10° 02:08:45 10° 119° (ESE) 1,722 2.7 -7.0°
Enters shadow 02:09:05 - 116° (ESE) 1,813 2.8 -7.1°
